Flag for China Weather past 2 weeks in Hohhot, Inner Mongolia, China

Now
25 °F

Light snow. Ice fog.


Feels Like: 20 °F
Forecast: 5 / 29 °F
Wind: 3 mph from East

Location: Hohhot Airport

Current Time: Dec 26, 2014 at 8:18:25 PM

Latest Report: Dec 26, 2014 at 7:00 PM


Visibility: 2 mi

Pressure: 30.24 "Hg

Humidity: 86%

Dew point: 21 °F

Location of HohhotLocation

Historic Weather in Hohhot — Graph

°F

Hohhot temperature yesterday

Maximum temperature yesterday: 30 °F (at 3:00 PM)
Minimum temperature yesterday: 1 °F (at 6:00 AM)
Average temperature yesterday: 15 °F

Past Weeks' High & Low Weather Summary

 TemperatureHumidityPressure
High30 °F (Dec 25, 3:00 PM)86% (Dec 26, 6:00 PM)30.48 "Hg (Dec 26, 6:00 PM)
Low-4 °F (Dec 13, 6:00 AM)24% (Dec 18, 4:00 PM)30.09 "Hg (Dec 23, 2:00 AM)
Average13 °F58%30.29 "Hg
* Reported Dec 11 7:00 PM — Dec 26 7:00 PM, Hohhot, Weather by CustomWeather, © 2014

Note: Actual official high and low records may vary slightly from our data, if they occured in-between our weather recording intervals... More about our weather records

Advertising

Hohhot weather history for previous 24 hours

 ConditionsComfort  
Time TempWeatherWind HumidityBarometerVisibility
7:00 PM
Dec 26
25 °FLight snow. Ice fog.3 mph86%30.24 "Hg2 mi
6:00 PM25 °FLight snow. Ice fog.No wind86%30.24 "Hg2 mi
5:00 PM28 °FLight snow. Scattered clouds.3 mph69%30.24 "Hg2 mi
4:00 PM28 °FPassing clouds.1 mph64%30.21 "Hg4 mi
3:00 PM30 °FPassing clouds.1 mph51%30.21 "HgN/A
2:00 PM30 °FPassing clouds.3 mph47%30.21 "HgN/A
1:00 PM30 °FPassing clouds.3 mph43%30.21 "HgN/A
12:00 PM30 °FPassing clouds.1 mph40%30.24 "HgN/A
11:00 AM27 °FPassing clouds.1 mph46%30.27 "HgN/A
10:00 AM23 °FPassing clouds.3 mph58%30.27 "HgN/A
9:00 AM18 °FPassing clouds.1 mph62%30.27 "Hg4 mi
8:00 AM14 °FPassing clouds.1 mph73%30.24 "HgN/A
7:00 AM16 °FClear.3 mph62%30.24 "Hg10 mi
6:00 AM14 °FClear.3 mph67%30.24 "Hg10 mi
5:00 AM16 °FClear.1 mph62%30.24 "Hg10 mi
4:00 AM16 °FClear.1 mph62%30.27 "Hg10 mi
3:00 AM16 °FClear.3 mph62%30.27 "Hg10 mi
2:00 AM14 °FClear.6 mph62%30.27 "Hg10 mi
1:00 AM14 °FClear.6 mph62%30.30 "Hg10 mi
12:00 AM12 °FClear.3 mph67%30.30 "Hg10 mi
11:00 PM
Dec 25
14 °FClear.6 mph62%30.30 "Hg10 mi
10:00 PM12 °FClear.3 mph67%30.30 "Hg10 mi
9:00 PM14 °FClear.3 mph62%30.30 "Hg10 mi
8:00 PM16 °FClear.1 mph57%30.30 "Hg10 mi
Weather by CustomWeather, © 2014

See weather overviewHow to use our weather pages